Hourly Data Report for September 12, 2017

All times are specified in Local Standard Time (LST). Add 1 hour to adjust for Daylight Saving Time where and when it is observed.

ST. STEPHEN
NEW BRUNSWICK

45°12'36.600" N
67°15'10.300" W
26.10 m
8104935
71607
WSS

Download Data

Hourly Data (September 2017)
Hourly Data Report for September 12, 2017
Temp Definition
°C
Dew Point Temp Definition
°C
Rel Hum Definition
%
Wind Dir Definition
10's deg

Wind Spd Definition
km/h
Visibility Definition
km
Stn Press Definition
kPa
Hmdx Definition


Wind Chill Definition


Weather Definition


TIME
00:00 13.2 11.3 88 32 6   101.21     LegendNANA
01:00 13.0 10.7 86 14 3   101.23     LegendNANA
02:00 11.0 9.7 92 32 2   101.21     LegendNANA
03:00 11.0 10.0 94 33 2   101.18     LegendNANA
04:00 10.3 9.5 95 28 3   101.14     LegendNANA
05:00 9.3 8.4 94 0 1   101.10     LegendNANA
06:00 8.2 7.4 95   0   101.07     LegendNANA
07:00 8.9 8.2 96 27 1   101.06     LegendNANA
08:00 12.0 10.0 88 24 3   101.01     LegendNANA
09:00 16.8 11.8 72 30 3   100.97     LegendNANA
10:00 19.9 12.3 61 34 5   100.90     LegendNANA
11:00 21.6 11.3 52 31 9   100.83     LegendNANA
12:00 23.1 11.7 48 29 7   100.73 25   LegendNANA
13:00 24.3 10.3 41 27 13   100.65 26   LegendNANA
14:00 25.0 11.4 43 24 14   100.54 27   LegendNANA
15:00 25.7 11.7 41 26 15   100.48 28   LegendNANA
16:00 25.7 10.6 39 27 14   100.41 27   LegendNANA
17:00 25.5 10.1 38 25 13   100.36 27   LegendNANA
18:00 24.0 9.9 41 25 9   100.33 25   LegendNANA
19:00 21.4 9.8 48 27 6   100.32     LegendNANA
20:00 17.9 10.4 62 29 2   100.37     LegendNANA
21:00 17.6 11.2 66 28 6   100.38     LegendNANA
22:00 16.7 9.9 64 31 3   100.41     LegendNANA
23:00 14.6 10.0 74 31 2   100.43     LegendNANA

Notes on Data Quality.

Legend

  • E = Estimated
  • M = Missing
  • NA = Not Available
  • ‡ = Partner data that is not subject to review by the National Climate Archives
Date modified: